Regional Weather Roundup
Issued by NWS

Home | Current Version | Previous Version | Graphics & Text | Print | Product List | Glossary On
Versions: 1 2 3 4 5 6 7 8 9 10 11 12 13 14 15 16 17 18 19 20 21 22 23 24 25 26 27 28 29 30 31 32 33 34 35 36 37 38 39 40 41 42 43 44 45 46 47 48 49 50
000
ASUS44 KMEG 251610
RWRTN
TENNESSEE HOURLY STATE WEATHER ROUNDUP
NATIONAL WEATHER SERVICE MEMPHIS TN
1100 AM CDT THU MAY 25 2017

TNZ002-004-019-021-049-052-054-088>092-251700-
WEST TENNESSEE

CITY           SKY/WX    TMP DP  RH WIND       PRES   REMARKS
MEMPHIS INTL   MOSUNNY   68  51  54 SW12      29.82R
NWS MEMPHIS      N/A     67 N/A N/A MISG        N/A
JACKSON        MOSUNNY   70  51  51 W10G18    29.79S
DYERSBURG        N/A    N/A N/A N/A MISG        N/A
COVINGTON      SUNNY     68  52  56 MISG      29.81R
UNION CITY     MOSUNNY   68  52  56 NW8G16    29.76S
BOLIVAR        MOSUNNY   68  52  56 SW13      29.81R
PARIS          MOSUNNY   66  54  63 W9G18     29.75R
HUNTINGDON     MOSUNNY   68  55  64 W10       29.77R
LEXINGTON      MOSUNNY   68  52  56 MISG      29.78R
SELMER         MOSUNNY   66  54  63 W8G17     29.80S
SAVANNAH       SUNNY     68  52  56 W14G22    29.79S
$$

TNZ008-025-027-028-033-062-065-066-251700-
NORTH MIDDLE TENNESSEE

CITY           SKY/WX    TMP DP  RH WIND       PRES   REMARKS
NASHVILLE      PTSUNNY   67  52  58 W14G28    29.73R
PORTLAND       CLOUDY    63  55  77 W10G18    29.70R
CLARKSVILLE    MOSUNNY   67  54  63 W12G25    29.72R
SMYRNA         MOSUNNY   67  53  61 W14G21    29.74R
COOKEVILLE     PTSUNNY   63  54  72 W10G18    29.70S
GALLATIN       PTSUNNY   66  55  68 W10G18    29.73R
CROSSVILLE     CLOUDY    56  49  77 W17G26    29.72R
$$

TNZ061-075-076-078-094-096-097-251700-
SOUTH MIDDLE TENNESSEE

CITY           SKY/WX    TMP DP  RH WIND       PRES   REMARKS
FAYETTEVILLE   PTSUNNY   66  54  63 W14G21    29.78R
TULLAHOMA      MOSUNNY   63  54  72 W13       29.77R
WINCHESTER     PTSUNNY   64  54  68 W8          N/A
MCMINNVILLE    MOSUNNY   63  54  72 W17       29.74R
COLUMBIA       SUNNY     66  52  59 W12G20    29.74R
SHELBYVILLE    MOSUNNY   66  54  63 W13G21    29.75R
$$

TNZ017-018-042-046-047-251700-
NORTHEAST TENNESSEE

CITY           SKY/WX    TMP DP  RH WIND       PRES   REMARKS
TRI CITIES     LGT RAIN  57  51  80 SW16G22   29.65R
ELIZABETHTON   CLOUDY    59  50  72 W8G14     29.64S
$$

TNZ012-013-036-069-073-074-251700-
CENTRAL EAST TENNESSEE

CITY           SKY/WX    TMP DP  RH WIND       PRES   REMARKS
KNOXVILLE      PTSUNNY   60  53  77 SW16      29.69R
OAK RIDGE      CLOUDY    62  51  67 SW8       29.69S
DOWNTOWN KNOXV CLOUDY    61  55  82 W15       29.69R
GATLINBURG     CLOUDY    57  50  77 SW12      29.69R
MORRISTOWN     CLOUDY    57  54  88 W13G24    29.66R
JACKSBORO      CLOUDY    61  50  67 SW10G22   29.69R
$$

TNZ083-085-099-251700-
SOUTHEAST TENNESSEE

CITY           SKY/WX    TMP DP  RH WIND       PRES   REMARKS
CHATTANOOGA    CLOUDY    65  50  58 SW14      29.76R
$$

SKY/WX REPORTED AS FAIR MEANS FEW OR NO CLOUDS BELOW
12 THOUSAND FEET.





USA.gov is the U.S. government's official web portal to all federal, state and local government web resources and services.